User: anonymous   Login
Location: Unspecified
(0.0000°N, 0.0000°E)
Time: 21:31:36
(UTC+00:00)
Language:

COMSATBw-1 - Orbit

View from above orbital plane
View from above orbital plane
View from above satellite
View from above satellite

Ground track
Ground track

The orbit data is extracted from the following two-line orbital elements,

1 35943U 09054B   18197.93452024 +.00000004 +00000-0 +00000-0 0  9991
2 35943 000.0507 098.4989 0002017 006.7899 228.8375 01.00271672032303
Epoch (UTC): 16 July 2018 22:25:42
Eccentricity: 0.0002017
inclination: 0.0507°
perigee height: 35778 km
apogee height: 35795 km
right ascension of ascending node: 98.4989°
argument of perigee: 6.7899°
revolutions per day: 1.00271672
mean anomaly at epoch: 228.8375°
orbit number at epoch: 3230

The dashed part of the orbit path shows where the satellite is in the earth's shadow,  

DLR